Location: Arlington
(31.4185°N, 90.5568°W)
Time: 05:13:29
(UTC+00:00)

Envisat - Visible Passes

Search period start: 23 September 2021 00:00
Search period end: 03 October 2021 00:00
Orbit: 764 x 766 km, 98.2° (Epoch: 22 September)

Date Brightness Start Highest point End Pass type
(mag) Time Alt. Az. Time Alt. Az. Time Alt. Az.
23 Sep 5.2 10:19:03 10° NE 10:23:14 25° E 10:27:23 10° SSE visible
24 Sep 3.0 11:20:26 10° N 11:25:29 69° WNW 11:30:31 10° SSW visible
25 Sep 4.1 10:43:45 10° NNE 10:48:39 48° E 10:53:32 10° S visible
26 Sep 5.6 10:08:02 10° NE 10:11:40 19° E 10:15:16 10° SE visible
27 Sep 3.0 11:08:54 10° NNE 11:14:00 89° WNW 11:19:04 10° SSW visible
28 Sep 4.6 10:32:27 10° NNE 10:37:07 36° E 10:41:45 10° SSE visible
29 Sep 6.0 09:57:16 10° ENE 10:00:04 15° E 10:02:50 10° SE visible
30 Sep 3.4 10:57:25 10° NNE 11:02:29 70° E 11:07:32 10° S visible
01 Oct 5.1 10:21:15 10° NE 10:25:34 28° E 10:29:51 10° SSE visible
02 Oct 6.2 09:47:16 10° ENE 09:48:27 11° E 09:49:39 10° ESE visible
02 Oct 3.0 11:22:46 10° N 11:27:47 63° WNW 11:32:46 10° SSW visible
